Hourly Data Report for May 01, 2020

TORONTO CITY
ONTARIO
Current Station Operator: ECCC - MSC

43°40'00.000" N
79°24'00.000" W
112.50 m
6158355
71508
XTO

Download Data

Hourly Data (May 2020)
Hourly Data Report for May 1, 2020
TIME
LST
Temp Definition
°C
Dew Point Definition
°C
Rel Hum Definition
%
Precip. Amount Definition
mm

Wind Dir Definition
10's deg

Wind Spd Definition
km/h
Visibility Definition
km
Stn Press Definition
kPa
Hmdx Definition


Wind Chill Definition


Weather Definition


00:00 10.8 9.1 89 0.0       99.15     LegendNANA
01:00 8.9 7.3 89 0.0       99.16     LegendNANA
02:00 9.3 7.8 91 0.5       99.19     LegendNANA
03:00 8.5 7.0 90 0.2       99.23     LegendNANA
04:00 9.0 7.5 91 0.0       99.27     LegendNANA
05:00 9.0 7.6 91 0.0       99.29     LegendNANA
06:00 10.4 9.0 91 0.0       99.37     LegendNANA
07:00 10.1 7.9 86 0.0       99.46     LegendNANA
08:00 9.8 6.6 81 0.0       99.54     LegendNANA
09:00 9.5 6.2 80 0.0       99.62     LegendNANA
10:00 10.3 6.3 76 0.0       99.69     LegendNANA
11:00 10.6 5.5 71 0.0       99.77     LegendNANA
12:00 10.4 4.9 69 0.0       99.81     LegendNANA
13:00 11.7 5.5 66 0.0       99.84     LegendNANA
14:00 14.4 6.5 59 0.0       99.84     LegendNANA
15:00 15.6 6.1 53 0.0       99.81     LegendNANA
16:00 15.8 3.3 43 0.3       99.82     LegendNANA
17:00 15.3 2.7 43 0.0       99.84     LegendNANA
18:00 15.3 1.4 39 0.0       99.91     LegendNANA
19:00 14.6 0.2 37 0.0       99.99     LegendNANA
20:00 13.7 0.8 41 0.2       100.09     LegendNANA
21:00 13.1 0.6 42 0.0       100.13     LegendNANA
22:00 12.3 0.8 45 0.0       100.14     LegendNANA
23:00 11.6 0.9 48 0.0       100.18     LegendNANA

Notes on Data Quality.

Legend

  • E = Estimated
  • M = Missing
  • NA = Not Available*
  • [empty] = Indicates an unobserved value
Date modified: